Time,TemperatureF,DewpointF,PressureIn,WindDirection,WindDirectionDegrees,WindSpeedMPH,WindSpeedGustMPH,Humidity,HourlyPrecipIn,Conditions,Clouds,dailyrainin,SoftwareType,DateUTC
2013-02-21 00:00:00,19.9,10.4,29.90,West,267,1.0,3.0,66,0.00,,,0.00,Wunderground v.1.15,2013-02-21 05:00:00,
2013-02-21 00:01:00,19.9,10.4,29.90,South,187,0.0,3.0,66,0.00,,,0.00,Wunderground v.1.15,2013-02-21 05:01:00,
2013-02-21 00:03:00,19.9,10.4,29.90,South,191,1.0,3.0,66,0.00,,,0.00,Wunderground v.1.15,2013-02-21 05:03:00,
2013-02-21 00:09:00,20.1,10.6,29.90,SW,225,1.0,1.0,66,0.00,,,0.00,Wunderground v.1.15,2013-02-21 05:09:00,
2013-02-21 00:15:00,20.2,10.6,29.90,SW,224,1.0,1.0,66,0.00,,,0.00,Wunderground v.1.15,2013-02-21 05:15:00,
2013-02-21 00:18:00,20.3,10.7,29.90,ENE,57,1.0,3.0,66,0.00,,,0.00,Wunderground v.1.15,2013-02-21 05:18:00,
2013-02-21 00:24:00,20.3,10.7,29.90,South,182,1.0,5.0,66,0.00,,,0.00,Wunderground v.1.15,2013-02-21 05:24:00,
2013-02-21 00:30:00,20.2,10.6,29.90,ENE,78,1.0,2.0,66,0.00,,,0.00,Wunderground v.1.15,2013-02-21 05:30:00,
2013-02-21 00:36:00,20.4,10.8,29.89,SSW,197,1.0,5.0,66,0.00,,,0.00,Wunderground v.1.15,2013-02-21 05:36:00,
2013-02-21 00:42:00,20.3,10.7,29.90,SW,215,1.0,1.0,66,0.00,,,0.00,Wunderground v.1.15,2013-02-21 05:42:00,
2013-02-21 00:48:00,20.4,10.8,29.90,WSW,254,1.0,3.0,66,0.00,,,0.00,Wunderground v.1.15,2013-02-21 05:48:00,
2013-02-21 00:54:00,20.5,10.9,29.90,SE,134,1.0,1.0,66,0.00,,,0.00,Wunderground v.1.15,2013-02-21 05:54:00,
2013-02-21 01:00:00,20.5,10.9,29.90,SW,234,1.0,3.0,66,0.00,,,0.00,Wunderground v.1.15,2013-02-21 06:00:00,
2013-02-21 01:06:00,20.4,10.8,29.89,East,87,1.0,3.0,66,0.00,,,0.00,Wunderground v.1.15,2013-02-21 06:06:00,
2013-02-21 01:12:00,20.1,11.2,29.89,SW,215,1.0,3.0,68,0.00,,,0.00,Wunderground v.1.15,2013-02-21 06:12:00,
2013-02-21 01:17:00,20.0,11.1,29.89,SSE,164,0.0,3.0,68,0.00,,,0.00,Wunderground v.1.15,2013-02-21 06:17:00,
2013-02-21 01:23:00,20.0,11.1,29.88,SW,224,0.0,0.0,68,0.00,,,0.00,Wunderground v.1.15,2013-02-21 06:23:00,
2013-02-21 01:29:00,19.8,10.9,29.89,South,184,0.0,0.0,68,0.00,,,0.00,Wunderground v.1.15,2013-02-21 06:29:00,
2013-02-21 01:35:00,20.0,10.8,29.89,SSE,158,1.0,4.0,67,0.00,,,0.00,Wunderground v.1.15,2013-02-21 06:35:00,
2013-02-21 01:41:00,20.1,10.9,29.89,South,191,1.0,2.0,67,0.00,,,0.00,Wunderground v.1.15,2013-02-21 06:41:00,
2013-02-21 01:47:00,20.1,10.9,29.89,SW,234,1.0,3.0,67,0.00,,,0.00,Wunderground v.1.15,2013-02-21 06:47:00,
2013-02-21 01:53:00,20.1,10.9,29.89,SSE,155,1.0,5.0,67,0.00,,,0.00,Wunderground v.1.15,2013-02-21 06:53:00,
2013-02-21 01:58:00,20.1,10.9,29.89,NW,310,1.0,5.0,67,0.00,,,0.00,Wunderground v.1.15,2013-02-21 06:58:00,
2013-02-21 02:05:00,20.1,11.2,29.89,SSW,212,1.0,5.0,68,0.00,,,0.00,Wunderground v.1.15,2013-02-21 07:05:00,
2013-02-21 02:10:00,20.1,11.2,29.89,ESE,103,1.0,2.0,68,0.00,,,0.00,Wunderground v.1.15,2013-02-21 07:10:00,
2013-02-21 02:16:00,20.1,11.2,29.89,South,177,1.0,3.0,68,0.00,,,0.00,Wunderground v.1.15,2013-02-21 07:16:00,
2013-02-21 02:22:00,19.9,11.0,29.88,South,172,1.0,1.0,68,0.00,,,0.00,Wunderground v.1.15,2013-02-21 07:22:00,
2013-02-21 02:28:00,19.6,11.1,29.89,ESE,103,0.0,2.0,69,0.00,,,0.00,Wunderground v.1.15,2013-02-21 07:28:00,
2013-02-21 02:34:00,19.6,11.1,29.89,SW,234,1.0,1.0,69,0.00,,,0.00,Wunderground v.1.15,2013-02-21 07:34:00,
2013-02-21 02:39:00,19.4,10.9,29.89,WNW,294,1.0,1.0,69,0.00,,,0.00,Wunderground v.1.15,2013-02-21 07:39:00,
2013-02-21 02:45:00,19.3,11.1,29.89,SE,131,1.0,1.0,70,0.00,,,0.00,Wunderground v.1.15,2013-02-21 07:45:00,
2013-02-21 02:51:00,19.4,10.9,29.89,West,260,1.0,4.0,69,0.00,,,0.00,Wunderground v.1.15,2013-02-21 07:51:00,
2013-02-21 02:57:00,19.3,11.1,29.89,ENE,70,1.0,4.0,70,0.00,,,0.00,Wunderground v.1.15,2013-02-21 07:57:00,
2013-02-21 03:03:00,19.3,11.1,29.89,SW,214,1.0,5.0,70,0.00,,,0.00,Wunderground v.1.15,2013-02-21 08:03:00,
2013-02-21 03:09:00,19.2,11.0,29.89,WSW,256,1.0,1.0,70,0.00,,,0.00,Wunderground v.1.15,2013-02-21 08:09:00,
2013-02-21 03:15:00,19.1,10.9,29.89,NNE,12,1.0,1.0,70,0.00,,,0.00,Wunderground v.1.15,2013-02-21 08:15:00,
2013-02-21 03:20:00,19.0,10.8,29.89,WSW,257,0.0,3.0,70,0.00,,,0.00,Wunderground v.1.15,2013-02-21 08:20:00,
2013-02-21 03:26:00,19.0,10.8,29.89,South,184,0.0,3.0,70,0.00,,,0.00,Wunderground v.1.15,2013-02-21 08:26:00,
2013-02-21 03:32:00,18.8,10.9,29.89,WNW,293,0.0,0.0,71,0.00,,,0.00,Wunderground v.1.15,2013-02-21 08:32:00,
2013-02-21 03:38:00,18.7,10.9,29.89,SSE,166,0.0,1.0,71,0.00,,,0.00,Wunderground v.1.15,2013-02-21 08:38:00,
2013-02-21 03:44:00,18.6,10.8,29.89,SSW,197,0.0,1.0,71,0.00,,,0.00,Wunderground v.1.15,2013-02-21 08:44:00,
2013-02-21 03:50:00,18.6,10.8,29.89,ESE,113,0.0,0.0,71,0.00,,,0.00,Wunderground v.1.15,2013-02-21 08:50:00,
2013-02-21 03:56:00,18.5,11.0,29.89,SSW,211,0.0,1.0,72,0.00,,,0.00,Wunderground v.1.15,2013-02-21 08:56:00,
2013-02-21 04:01:00,18.6,11.1,29.90,South,172,0.0,5.0,72,0.00,,,0.00,Wunderground v.1.15,2013-02-21 09:01:00,
2013-02-21 04:07:00,18.6,11.1,29.90,South,182,0.0,5.0,72,0.00,,,0.00,Wunderground v.1.15,2013-02-21 09:07:00,
2013-02-21 04:13:00,18.5,11.0,29.90,NE,49,0.0,2.0,72,0.00,,,0.00,Wunderground v.1.15,2013-02-21 09:13:00,
2013-02-21 04:19:00,18.7,11.2,29.90,East,82,0.0,1.0,72,0.00,,,0.00,Wunderground v.1.15,2013-02-21 09:19:00,
2013-02-21 04:25:00,18.8,11.3,29.90,West,272,0.0,1.0,72,0.00,,,0.00,Wunderground v.1.15,2013-02-21 09:25:00,
2013-02-21 04:31:00,18.9,11.4,29.90,ENE,57,0.0,2.0,72,0.00,,,0.00,Wunderground v.1.15,2013-02-21 09:31:00,
2013-02-21 04:37:00,19.2,11.6,29.90,East,100,0.0,2.0,72,0.00,,,0.00,Wunderground v.1.15,2013-02-21 09:37:00,
2013-02-21 04:43:00,19.4,11.5,29.90,ENE,66,0.0,1.0,71,0.00,,,0.00,Wunderground v.1.15,2013-02-21 09:43:00,
2013-02-21 04:48:00,19.6,12.0,29.91,SE,146,0.0,1.0,72,0.00,,,0.00,Wunderground v.1.15,2013-02-21 09:48:00,
2013-02-21 04:54:00,19.7,12.1,29.91,WSW,252,0.0,0.0,72,0.00,,,0.00,Wunderground v.1.15,2013-02-21 09:54:00,
2013-02-21 05:00:00,19.8,11.9,29.91,South,177,0.0,3.0,71,0.00,,,0.00,Wunderground v.1.15,2013-02-21 10:00:00,
2013-02-21 05:06:00,20.0,12.4,29.91,WSW,242,1.0,3.0,72,0.00,,,0.00,Wunderground v.1.15,2013-02-21 10:06:00,
2013-02-21 05:12:00,20.0,12.4,29.91,SW,215,0.0,1.0,72,0.00,,,0.00,Wunderground v.1.15,2013-02-21 10:12:00,
2013-02-21 05:18:00,20.0,12.4,29.91,East,96,0.0,2.0,72,0.00,,,0.00,Wunderground v.1.15,2013-02-21 10:18:00,
2013-02-21 05:24:00,20.1,12.2,29.91,SW,215,1.0,5.0,71,0.00,,,0.00,Wunderground v.1.15,2013-02-21 10:24:00,
2013-02-21 05:30:00,20.2,12.3,29.91,WSW,249,1.0,1.0,71,0.00,,,0.00,Wunderground v.1.15,2013-02-21 10:30:00,
2013-02-21 05:35:00,20.1,12.2,29.91,West,264,0.0,1.0,71,0.00,,,0.00,Wunderground v.1.15,2013-02-21 10:35:00,
2013-02-21 05:41:00,20.0,12.1,29.92,SSW,213,0.0,4.0,71,0.00,,,0.00,Wunderground v.1.15,2013-02-21 10:41:00,
2013-02-21 05:47:00,19.7,12.1,29.92,ENE,77,0.0,4.0,72,0.00,,,0.00,Wunderground v.1.15,2013-02-21 10:47:00,
2013-02-21 05:53:00,19.5,11.9,29.92,SSE,160,1.0,3.0,72,0.00,,,0.00,Wunderground v.1.15,2013-02-21 10:53:00,
2013-02-21 05:59:00,19.4,11.8,29.92,SSE,154,1.0,2.0,72,0.00,,,0.00,Wunderground v.1.15,2013-02-21 10:59:00,
2013-02-21 06:04:00,19.3,11.7,29.92,ESE,106,0.0,5.0,72,0.00,,,0.00,Wunderground v.1.15,2013-02-21 11:04:00,
2013-02-21 06:10:00,19.0,11.8,29.92,SW,234,0.0,1.0,73,0.00,,,0.00,Wunderground v.1.15,2013-02-21 11:10:00,
2013-02-21 06:16:00,19.0,11.8,29.92,ESE,119,0.0,2.0,73,0.00,,,0.00,Wunderground v.1.15,2013-02-21 11:16:00,
2013-02-21 06:22:00,19.0,12.1,29.92,WSW,248,1.0,1.0,74,0.00,,,0.00,Wunderground v.1.15,2013-02-21 11:22:00,
2013-02-21 06:27:00,19.1,11.9,29.92,WNW,290,0.0,1.0,73,0.00,,,0.00,Wunderground v.1.15,2013-02-21 11:27:00,
2013-02-21 06:33:00,19.0,11.8,29.92,SW,219,0.0,1.0,73,0.00,,,0.00,Wunderground v.1.15,2013-02-21 11:33:00,
2013-02-21 06:39:00,19.0,11.8,29.92,SW,230,0.0,0.0,73,0.00,,,0.00,Wunderground v.1.15,2013-02-21 11:39:00,
2013-02-21 06:45:00,18.9,11.7,29.92,WSW,250,0.0,0.0,73,0.00,,,0.00,Wunderground v.1.15,2013-02-21 11:45:00,
2013-02-21 06:51:00,18.8,11.6,29.93,South,189,0.0,0.0,73,0.00,,,0.00,Wunderground v.1.15,2013-02-21 11:51:00,
2013-02-21 06:57:00,18.8,11.9,29.92,SW,230,0.0,1.0,74,0.00,,,0.00,Wunderground v.1.15,2013-02-21 11:57:00,
2013-02-21 07:03:00,18.5,11.6,29.93,South,171,0.0,3.0,74,0.00,,,0.00,Wunderground v.1.15,2013-02-21 12:03:00,
2013-02-21 07:09:00,18.6,11.7,29.93,SSE,160,0.0,0.0,74,0.00,,,0.00,Wunderground v.1.15,2013-02-21 12:09:00,
2013-02-21 07:15:00,19.0,11.8,29.92,SSW,213,1.0,2.0,73,0.00,,,0.00,Wunderground v.1.15,2013-02-21 12:15:00,
2013-02-21 07:20:00,19.1,11.6,29.92,West,272,1.0,1.0,72,0.00,,,0.00,Wunderground v.1.15,2013-02-21 12:20:00,
2013-02-21 07:26:00,19.3,11.7,29.93,ENE,77,1.0,1.0,72,0.00,,,0.00,Wunderground v.1.15,2013-02-21 12:26:00,
2013-02-21 07:32:00,19.7,11.8,29.93,SW,220,1.0,7.0,71,0.00,,,0.00,Wunderground v.1.15,2013-02-21 12:32:00,
2013-02-21 07:38:00,20.0,11.8,29.93,WSW,240,2.0,7.0,70,0.00,,,0.00,Wunderground v.1.15,2013-02-21 12:38:00,
2013-02-21 07:43:00,20.2,12.0,29.93,NE,39,1.0,2.0,70,0.00,,,0.00,Wunderground v.1.15,2013-02-21 12:43:00,
2013-02-21 07:49:00,20.5,11.9,29.93,SSW,201,0.0,1.0,69,0.00,,,0.00,Wunderground v.1.15,2013-02-21 12:49:00,
2013-02-21 07:55:00,20.9,12.3,29.93,SW,219,1.0,2.0,69,0.00,,,0.00,Wunderground v.1.15,2013-02-21 12:55:00,
2013-02-21 08:01:00,21.1,12.2,29.92,SSE,160,1.0,2.0,68,0.00,,,0.00,Wunderground v.1.15,2013-02-21 13:01:00,
2013-02-21 08:07:00,21.4,12.1,29.92,SE,127,1.0,2.0,67,0.00,,,0.00,Wunderground v.1.15,2013-02-21 13:07:00,
2013-02-21 08:13:00,21.8,12.2,29.92,NW,305,1.0,4.0,66,0.00,,,0.00,Wunderground v.1.15,2013-02-21 13:13:00,
2013-02-21 08:19:00,21.9,11.9,29.92,ESE,116,1.0,1.0,65,0.00,,,0.00,Wunderground v.1.15,2013-02-21 13:19:00,
2013-02-21 08:24:00,22.2,12.2,29.92,ENE,69,1.0,1.0,65,0.00,,,0.00,Wunderground v.1.15,2013-02-21 13:24:00,
2013-02-21 08:30:00,22.5,11.8,29.93,West,276,1.0,1.0,63,0.00,,,0.00,Wunderground v.1.15,2013-02-21 13:30:00,
2013-02-21 08:36:00,22.6,11.9,29.93,NW,305,1.0,3.0,63,0.00,,,0.00,Wunderground v.1.15,2013-02-21 13:36:00,
2013-02-21 08:42:00,22.9,12.2,29.93,SSW,213,0.0,2.0,63,0.00,,,0.00,Wunderground v.1.15,2013-02-21 13:42:00,
2013-02-21 08:48:00,23.0,11.5,29.93,SSW,210,1.0,5.0,61,0.00,,,0.00,Wunderground v.1.15,2013-02-21 13:48:00,
2013-02-21 08:54:00,23.2,11.4,29.93,South,183,2.0,12.0,60,0.00,,,0.00,Wunderground v.1.15,2013-02-21 13:54:00,
2013-02-21 09:00:00,23.6,11.4,29.93,East,80,2.0,5.0,59,0.00,,,0.00,Wunderground v.1.15,2013-02-21 14:00:00,
2013-02-21 09:05:00,24.0,11.3,29.93,WSW,241,1.0,5.0,58,0.00,,,0.00,Wunderground v.1.15,2013-02-21 14:05:00,
2013-02-21 09:11:00,24.6,11.1,29.93,WNW,289,2.0,3.0,56,0.00,,,0.00,Wunderground v.1.15,2013-02-21 14:11:00,
2013-02-21 09:16:00,24.8,10.5,29.93,SW,219,3.0,4.0,54,0.00,,,0.00,Wunderground v.1.15,2013-02-21 14:16:00,
2013-02-21 09:22:00,25.0,10.7,29.92,SW,236,3.0,3.0,54,0.00,,,0.00,Wunderground v.1.15,2013-02-21 14:22:00,
2013-02-21 09:28:00,24.7,10.4,29.93,NE,42,3.0,6.0,54,0.00,,,0.00,Wunderground v.1.15,2013-02-21 14:28:00,
2013-02-21 09:34:00,24.4,10.1,29.94,East,94,3.0,4.0,54,0.00,,,0.00,Wunderground v.1.15,2013-02-21 14:34:00,
2013-02-21 09:40:00,25.1,10.8,29.94,WSW,239,2.0,3.0,54,0.00,,,0.00,Wunderground v.1.15,2013-02-21 14:40:00,
2013-02-21 09:46:00,25.7,10.5,29.94,SSW,196,2.0,7.0,52,0.00,,,0.00,Wunderground v.1.15,2013-02-21 14:46:00,
2013-02-21 09:52:00,26.6,10.9,29.94,NE,43,2.0,4.0,51,0.00,,,0.00,Wunderground v.1.15,2013-02-21 14:52:00,
2013-02-21 09:57:00,27.1,10.9,29.94,West,269,2.0,7.0,50,0.00,,,0.00,Wunderground v.1.15,2013-02-21 14:57:00,
2013-02-21 10:03:00,27.3,10.6,29.94,East,94,3.0,7.0,49,0.00,,,0.00,Wunderground v.1.15,2013-02-21 15:03:00,
2013-02-21 10:09:00,27.5,10.8,29.94,West,260,3.0,3.0,49,0.00,,,0.00,Wunderground v.1.15,2013-02-21 15:09:00,
2013-02-21 10:15:00,28.0,11.3,29.94,South,185,3.0,5.0,49,0.00,,,0.00,Wunderground v.1.15,2013-02-21 15:15:00,
2013-02-21 10:21:00,28.5,11.3,29.94,ENE,58,3.0,7.0,48,0.00,,,0.00,Wunderground v.1.15,2013-02-21 15:21:00,
2013-02-21 10:27:00,28.5,11.7,29.94,NW,324,4.0,16.0,49,0.00,,,0.00,Wunderground v.1.15,2013-02-21 15:27:00,
2013-02-21 10:33:00,28.9,11.2,29.93,West,259,4.0,6.0,47,0.00,,,0.00,Wunderground v.1.15,2013-02-21 15:33:00,
2013-02-21 10:39:00,29.2,11.4,29.93,SW,229,3.0,3.0,47,0.00,,,0.00,Wunderground v.1.15,2013-02-21 15:39:00,
2013-02-21 10:45:00,29.3,11.5,29.93,SW,225,3.0,6.0,47,0.00,,,0.00,Wunderground v.1.15,2013-02-21 15:45:00,
2013-02-21 10:50:00,29.7,12.4,29.94,ENE,63,3.0,3.0,48,0.00,,,0.00,Wunderground v.1.15,2013-02-21 15:50:00,
2013-02-21 10:56:00,29.7,11.4,29.94,South,178,2.0,5.0,46,0.00,,,0.00,Wunderground v.1.15,2013-02-21 15:56:00,
2013-02-21 11:02:00,29.8,12.5,29.94,WNW,286,2.0,12.0,48,0.00,,,0.00,Wunderground v.1.15,2013-02-21 16:02:00,
2013-02-21 11:08:00,30.5,12.6,29.94,ENE,65,1.0,12.0,47,0.00,,,0.00,Wunderground v.1.15,2013-02-21 16:08:00,
2013-02-21 11:14:00,30.0,12.2,29.94,East,82,2.0,10.0,47,0.00,,,0.00,Wunderground v.1.15,2013-02-21 16:14:00,
2013-02-21 11:20:00,29.8,12.5,29.94,ESE,111,3.0,3.0,48,0.00,,,0.00,Wunderground v.1.15,2013-02-21 16:20:00,
2013-02-21 11:26:00,30.1,12.7,29.95,SW,231,2.0,4.0,48,0.00,,,0.00,Wunderground v.1.15,2013-02-21 16:26:00,
2013-02-21 11:32:00,30.4,13.5,29.95,NNE,30,2.0,4.0,49,0.00,,,0.00,Wunderground v.1.15,2013-02-21 16:32:00,
2013-02-21 11:38:00,30.2,12.8,29.95,SSW,211,2.0,7.0,48,0.00,,,0.00,Wunderground v.1.15,2013-02-21 16:38:00,
2013-02-21 11:44:00,30.1,12.7,29.96,SSW,210,2.0,3.0,48,0.00,,,0.00,Wunderground v.1.15,2013-02-21 16:44:00,
2013-02-21 11:49:00,29.7,12.4,29.96,SE,127,3.0,6.0,48,0.00,,,0.00,Wunderground v.1.15,2013-02-21 16:49:00,
2013-02-21 11:55:00,29.3,12.0,29.96,SSW,198,4.0,11.0,48,0.00,,,0.00,Wunderground v.1.15,2013-02-21 16:55:00,
2013-02-21 12:01:00,29.4,12.1,29.95,SSW,213,3.0,7.0,48,0.00,,,0.00,Wunderground v.1.15,2013-02-21 17:01:00,
2013-02-21 12:07:00,30.1,13.7,29.96,SSE,168,2.0,7.0,50,0.00,,,0.00,Wunderground v.1.15,2013-02-21 17:07:00,
2013-02-21 12:13:00,29.9,12.6,29.95,SW,220,3.0,8.0,48,0.00,,,0.00,Wunderground v.1.15,2013-02-21 17:13:00,
2013-02-21 12:19:00,29.9,12.6,29.96,SSE,163,4.0,4.0,48,0.00,,,0.00,Wunderground v.1.15,2013-02-21 17:19:00,
2013-02-21 12:24:00,29.6,12.3,29.95,SW,214,3.0,5.0,48,0.00,,,0.00,Wunderground v.1.15,2013-02-21 17:24:00,
2013-02-21 12:30:00,29.8,12.9,29.95,SW,224,3.0,4.0,49,0.00,,,0.00,Wunderground v.1.15,2013-02-21 17:30:00,
2013-02-21 12:36:00,30.1,12.7,29.95,SW,231,2.0,5.0,48,0.00,,,0.00,Wunderground v.1.15,2013-02-21 17:36:00,
2013-02-21 12:41:00,29.8,12.5,29.95,SE,134,3.0,6.0,48,0.00,,,0.00,Wunderground v.1.15,2013-02-21 17:41:00,
2013-02-21 12:47:00,29.6,12.3,29.94,South,171,4.0,9.0,48,0.00,,,0.00,Wunderground v.1.15,2013-02-21 17:47:00,
2013-02-21 12:52:00,29.8,12.5,29.93,ESE,123,5.0,8.0,48,0.00,,,0.00,Wunderground v.1.15,2013-02-21 17:52:00,
2013-02-21 12:58:00,30.2,12.8,29.93,WSW,245,4.0,8.0,48,0.00,,,0.00,Wunderground v.1.15,2013-02-21 17:58:00,
2013-02-21 13:04:00,30.6,13.7,29.94,South,172,3.0,11.0,49,0.00,,,0.00,Wunderground v.1.15,2013-02-21 18:04:00,
2013-02-21 13:10:00,30.6,12.7,29.93,NE,47,3.0,7.0,47,0.00,,,0.00,Wunderground v.1.15,2013-02-21 18:10:00,
2013-02-21 13:16:00,30.5,12.6,29.93,WNW,283,3.0,7.0,47,0.00,,,0.00,Wunderground v.1.15,2013-02-21 18:16:00,
2013-02-21 13:22:00,30.4,12.5,29.93,WSW,240,3.0,7.0,47,0.00,,,0.00,Wunderground v.1.15,2013-02-21 18:22:00,
2013-02-21 13:28:00,30.3,12.9,29.93,ESE,121,4.0,7.0,48,0.00,,,0.00,Wunderground v.1.15,2013-02-21 18:28:00,
2013-02-21 13:34:00,30.4,13.0,29.93,SW,223,4.0,9.0,48,0.00,,,0.00,Wunderground v.1.15,2013-02-21 18:34:00,
2013-02-21 13:40:00,30.7,13.3,29.94,SSW,198,3.0,3.0,48,0.00,,,0.00,Wunderground v.1.15,2013-02-21 18:40:00,
2013-02-21 13:46:00,30.4,13.0,29.93,North,7,4.0,10.0,48,0.00,,,0.00,Wunderground v.1.15,2013-02-21 18:46:00,
2013-02-21 13:51:00,30.3,12.9,29.94,South,175,4.0,6.0,48,0.00,,,0.00,Wunderground v.1.15,2013-02-21 18:51:00,
2013-02-21 13:57:00,30.1,13.7,29.94,NNE,26,4.0,7.0,50,0.00,,,0.00,Wunderground v.1.15,2013-02-21 18:57:00,
2013-02-21 14:03:00,30.2,13.3,29.95,South,177,4.0,10.0,49,0.00,,,0.00,Wunderground v.1.15,2013-02-21 19:03:00,
2013-02-21 14:09:00,30.1,13.2,29.95,NNE,29,4.0,9.0,49,0.00,,,0.00,Wunderground v.1.15,2013-02-21 19:09:00,
2013-02-21 14:15:00,29.9,13.0,29.96,South,186,4.0,9.0,49,0.00,,,0.00,Wunderground v.1.15,2013-02-21 19:15:00,
2013-02-21 14:21:00,29.9,12.6,29.96,ENE,77,4.0,9.0,48,0.00,,,0.00,Wunderground v.1.15,2013-02-21 19:21:00,
2013-02-21 14:26:00,30.3,13.4,29.97,WSW,241,3.0,9.0,49,0.00,,,0.00,Wunderground v.1.15,2013-02-21 19:26:00,
2013-02-21 14:32:00,29.7,12.8,29.97,ENE,65,3.0,8.0,49,0.00,,,0.00,Wunderground v.1.15,2013-02-21 19:32:00,
2013-02-21 14:38:00,29.0,12.7,29.98,SSE,154,5.0,8.0,50,0.00,,,0.00,Wunderground v.1.15,2013-02-21 19:38:00,
2013-02-21 14:44:00,28.5,13.1,29.97,SW,227,5.0,6.0,52,0.00,,,0.00,Wunderground v.1.15,2013-02-21 19:44:00,
2013-02-21 14:50:00,28.2,12.8,29.97,NNE,32,3.0,6.0,52,0.00,,,0.00,Wunderground v.1.15,2013-02-21 19:50:00,
2013-02-21 14:56:00,28.0,13.5,29.98,ENE,61,3.0,6.0,54,0.00,,,0.00,Wunderground v.1.15,2013-02-21 19:56:00,
2013-02-21 15:02:00,27.5,12.6,29.98,ESE,109,3.0,10.0,53,0.00,,,0.00,Wunderground v.1.15,2013-02-21 20:02:00,
2013-02-21 15:08:00,27.1,12.2,29.99,NNW,330,4.0,10.0,53,0.00,,,0.00,Wunderground v.1.15,2013-02-21 20:08:00,
2013-02-21 15:14:00,27.3,12.8,29.99,SSE,158,3.0,7.0,54,0.00,,,0.00,Wunderground v.1.15,2013-02-21 20:14:00,
2013-02-21 15:20:00,26.9,12.0,30.00,ENE,73,4.0,7.0,53,0.00,,,0.00,Wunderground v.1.15,2013-02-21 20:20:00,
2013-02-21 15:25:00,26.8,12.4,30.00,SSW,201,4.0,7.0,54,0.00,,,0.00,Wunderground v.1.15,2013-02-21 20:25:00,
2013-02-21 15:31:00,26.8,12.4,29.98,SSW,210,4.0,6.0,54,0.00,,,0.00,Wunderground v.1.15,2013-02-21 20:31:00,
2013-02-21 15:37:00,26.7,12.3,29.99,SE,129,4.0,6.0,54,0.00,,,0.00,Wunderground v.1.15,2013-02-21 20:37:00,
2013-02-21 15:43:00,26.3,12.3,29.99,SSW,201,5.0,9.0,55,0.00,,,0.00,Wunderground v.1.15,2013-02-21 20:43:00,
2013-02-21 15:49:00,26.0,12.0,29.99,SSW,213,5.0,5.0,55,0.00,,,0.00,Wunderground v.1.15,2013-02-21 20:49:00,
2013-02-21 15:55:00,25.9,11.9,30.00,SE,136,5.0,9.0,55,0.00,,,0.00,Wunderground v.1.15,2013-02-21 20:55:00,
2013-02-21 16:01:00,25.8,12.6,30.00,SE,128,4.0,11.0,57,0.00,,,0.00,Wunderground v.1.15,2013-02-21 21:01:00,
2013-02-21 16:06:00,25.8,12.2,30.01,SSW,199,3.0,11.0,56,0.00,,,0.00,Wunderground v.1.15,2013-02-21 21:06:00,
2013-02-21 16:12:00,25.5,12.0,30.01,ESE,113,3.0,7.0,56,0.00,,,0.00,Wunderground v.1.15,2013-02-21 21:12:00,
2013-02-21 16:18:00,25.4,12.3,30.02,WSW,244,3.0,7.0,57,0.00,,,0.00,Wunderground v.1.15,2013-02-21 21:18:00,
2013-02-21 16:24:00,25.2,12.1,30.02,WNW,302,2.0,5.0,57,0.00,,,0.00,Wunderground v.1.15,2013-02-21 21:24:00,
2013-02-21 16:29:00,25.0,11.9,30.03,SSW,201,3.0,3.0,57,0.00,,,0.00,Wunderground v.1.15,2013-02-21 21:29:00,
2013-02-21 16:35:00,24.8,11.7,30.03,West,260,3.0,9.0,57,0.00,,,0.00,Wunderground v.1.15,2013-02-21 21:35:00,
2013-02-21 16:41:00,24.5,11.4,30.04,SE,132,4.0,4.0,57,0.00,,,0.00,Wunderground v.1.15,2013-02-21 21:41:00,
2013-02-21 16:47:00,24.2,11.5,30.05,South,186,4.0,8.0,58,0.00,,,0.00,Wunderground v.1.15,2013-02-21 21:47:00,
2013-02-21 16:53:00,24.1,11.4,30.05,SSW,213,3.0,4.0,58,0.00,,,0.00,Wunderground v.1.15,2013-02-21 21:53:00,
2013-02-21 16:59:00,23.8,11.2,30.05,South,184,3.0,9.0,58,0.00,,,0.00,Wunderground v.1.15,2013-02-21 21:59:00,
2013-02-21 17:04:00,23.4,10.8,30.05,NW,304,3.0,9.0,58,0.00,,,0.00,Wunderground v.1.15,2013-02-21 22:04:00,
2013-02-21 17:09:00,23.1,10.9,30.06,South,189,4.0,5.0,59,0.00,,,0.00,Wunderground v.1.15,2013-02-21 22:09:00,
2013-02-21 17:15:00,22.8,11.0,30.07,ENE,65,4.0,8.0,60,0.00,,,0.00,Wunderground v.1.15,2013-02-21 22:15:00,
2013-02-21 17:21:00,22.7,10.9,30.08,East,79,3.0,11.0,60,0.00,,,0.00,Wunderground v.1.15,2013-02-21 22:21:00,
2013-02-21 17:27:00,22.4,11.0,30.09,ENE,73,3.0,16.0,61,0.00,,,0.00,Wunderground v.1.15,2013-02-21 22:27:00,
2013-02-21 17:33:00,22.1,10.7,30.09,ENE,75,2.0,6.0,61,0.00,,,0.00,Wunderground v.1.15,2013-02-21 22:33:00,
2013-02-21 17:39:00,21.8,10.8,30.09,SW,215,4.0,4.0,62,0.00,,,0.00,Wunderground v.1.15,2013-02-21 22:39:00,
2013-02-21 17:45:00,21.5,10.5,30.09,West,268,4.0,7.0,62,0.00,,,0.00,Wunderground v.1.15,2013-02-21 22:45:00,
2013-02-21 17:51:00,21.3,10.7,30.10,South,174,3.0,3.0,63,0.00,,,0.00,Wunderground v.1.15,2013-02-21 22:51:00,
2013-02-21 17:56:00,21.1,10.5,30.10,ENE,69,3.0,5.0,63,0.00,,,0.00,Wunderground v.1.15,2013-02-21 22:56:00,
2013-02-21 18:02:00,21.0,10.4,30.11,North,2,3.0,10.0,63,0.00,,,0.00,Wunderground v.1.15,2013-02-21 23:02:00,
2013-02-21 18:08:00,20.8,10.5,30.11,NNW,346,3.0,10.0,64,0.00,,,0.00,Wunderground v.1.15,2013-02-21 23:08:00,
2013-02-21 18:14:00,20.7,10.4,30.12,ESE,120,3.0,8.0,64,0.00,,,0.00,Wunderground v.1.15,2013-02-21 23:14:00,
2013-02-21 18:20:00,20.5,10.2,30.12,SSW,205,2.0,3.0,64,0.00,,,0.00,Wunderground v.1.15,2013-02-21 23:20:00,
2013-02-21 18:26:00,20.4,10.5,30.12,ENE,65,2.0,5.0,65,0.00,,,0.00,Wunderground v.1.15,2013-02-21 23:26:00,
2013-02-21 18:31:00,20.2,10.3,30.12,NNE,15,3.0,3.0,65,0.00,,,0.00,Wunderground v.1.15,2013-02-21 23:31:00,
2013-02-21 18:37:00,20.1,10.2,30.12,NW,310,2.0,5.0,65,0.00,,,0.00,Wunderground v.1.15,2013-02-21 23:37:00,
2013-02-21 18:43:00,19.9,10.4,30.13,West,264,2.0,4.0,66,0.00,,,0.00,Wunderground v.1.15,2013-02-21 23:43:00,
2013-02-21 18:49:00,19.8,10.3,30.13,ENE,67,2.0,2.0,66,0.00,,,0.00,Wunderground v.1.15,2013-02-21 23:49:00,
2013-02-21 18:55:00,19.7,10.2,30.13,WNW,292,2.0,2.0,66,0.00,,,0.00,Wunderground v.1.15,2013-02-21 23:55:00,
2013-02-21 19:01:00,19.6,10.1,30.13,South,172,2.0,8.0,66,0.00,,,0.00,Wunderground v.1.15,2013-02-22 00:01:00,
2013-02-21 19:07:00,19.6,10.1,30.14,NE,47,2.0,8.0,66,0.00,,,0.00,Wunderground v.1.15,2013-02-22 00:07:00,
2013-02-21 19:12:00,19.5,10.3,30.15,SE,139,2.0,5.0,67,0.00,,,0.00,Wunderground v.1.15,2013-02-22 00:12:00,
2013-02-21 19:18:00,19.3,10.1,30.14,ENE,64,2.0,5.0,67,0.00,,,0.00,Wunderground v.1.15,2013-02-22 00:18:00,
2013-02-21 19:23:00,19.3,10.1,30.15,West,267,2.0,3.0,67,0.00,,,0.00,Wunderground v.1.15,2013-02-22 00:23:00,
2013-02-21 19:29:00,19.2,10.0,30.15,West,281,2.0,2.0,67,0.00,,,0.00,Wunderground v.1.15,2013-02-22 00:29:00,
2013-02-21 19:35:00,19.2,10.4,30.15,WSW,238,2.0,5.0,68,0.00,,,0.00,Wunderground v.1.15,2013-02-22 00:35:00,
2013-02-21 19:41:00,19.1,10.3,30.16,SW,227,2.0,7.0,68,0.00,,,0.00,Wunderground v.1.15,2013-02-22 00:41:00,
2013-02-21 19:47:00,19.0,10.2,30.15,NNE,27,2.0,7.0,68,0.00,,,0.00,Wunderground v.1.15,2013-02-22 00:47:00,
2013-02-21 19:53:00,19.1,10.3,30.15,NNE,30,2.0,3.0,68,0.00,,,0.00,Wunderground v.1.15,2013-02-22 00:53:00,
2013-02-21 19:59:00,19.1,10.3,30.16,SSE,153,2.0,2.0,68,0.00,,,0.00,Wunderground v.1.15,2013-02-22 00:59:00,
2013-02-21 20:05:00,19.1,10.3,30.17,East,84,2.0,9.0,68,0.00,,,0.00,Wunderground v.1.15,2013-02-22 01:05:00,
2013-02-21 20:10:00,19.0,10.2,30.17,South,169,1.0,6.0,68,0.00,,,0.00,Wunderground v.1.15,2013-02-22 01:10:00,
2013-02-21 20:16:00,19.0,10.5,30.18,ENE,59,1.0,6.0,69,0.00,,,0.00,Wunderground v.1.15,2013-02-22 01:16:00,
2013-02-21 20:22:00,18.9,10.4,30.18,SW,219,1.0,3.0,69,0.00,,,0.00,Wunderground v.1.15,2013-02-22 01:22:00,
2013-02-21 20:28:00,19.1,10.6,30.18,ENE,73,1.0,4.0,69,0.00,,,0.00,Wunderground v.1.15,2013-02-22 01:28:00,
2013-02-21 20:34:00,19.2,10.7,30.19,SW,229,1.0,3.0,69,0.00,,,0.00,Wunderground v.1.15,2013-02-22 01:34:00,
2013-02-21 20:40:00,19.3,10.8,30.20,East,89,2.0,3.0,69,0.00,,,0.00,Wunderground v.1.15,2013-02-22 01:40:00,
2013-02-21 20:46:00,19.4,10.9,30.21,NNE,21,2.0,7.0,69,0.00,,,0.00,Wunderground v.1.15,2013-02-22 01:46:00,
2013-02-21 20:52:00,19.5,11.0,30.22,NE,35,3.0,4.0,69,0.00,,,0.00,Wunderground v.1.15,2013-02-22 01:52:00,
2013-02-21 20:58:00,19.7,11.2,30.22,SSW,203,3.0,5.0,69,0.00,,,0.00,Wunderground v.1.15,2013-02-22 01:58:00,
2013-02-21 21:03:00,19.7,11.2,30.22,South,181,3.0,10.0,69,0.00,,,0.00,Wunderground v.1.15,2013-02-22 02:03:00,
2013-02-21 21:09:00,19.7,11.2,30.22,ENE,63,4.0,8.0,69,0.00,,,0.00,Wunderground v.1.15,2013-02-22 02:09:00,
2013-02-21 21:15:00,19.6,11.1,30.22,NW,326,3.0,8.0,69,0.00,,,0.00,Wunderground v.1.15,2013-02-22 02:15:00,
2013-02-21 21:21:00,19.5,11.0,30.22,NNE,27,3.0,5.0,69,0.00,,,0.00,Wunderground v.1.15,2013-02-22 02:21:00,
2013-02-21 21:27:00,19.3,11.1,30.23,South,178,2.0,5.0,70,0.00,,,0.00,Wunderground v.1.15,2013-02-22 02:27:00,
2013-02-21 21:33:00,19.2,11.0,30.24,South,174,3.0,5.0,70,0.00,,,0.00,Wunderground v.1.15,2013-02-22 02:33:00,
2013-02-21 21:39:00,19.2,11.0,30.24,East,80,2.0,2.0,70,0.00,,,0.00,Wunderground v.1.15,2013-02-22 02:39:00,
2013-02-21 21:44:00,19.1,10.9,30.25,ESE,120,2.0,6.0,70,0.00,,,0.00,Wunderground v.1.15,2013-02-22 02:44:00,
2013-02-21 21:50:00,19.0,11.1,30.25,ENE,68,2.0,2.0,71,0.00,,,0.00,Wunderground v.1.15,2013-02-22 02:50:00,
2013-02-21 21:56:00,19.0,11.1,30.25,NE,52,2.0,4.0,71,0.00,,,0.00,Wunderground v.1.15,2013-02-22 02:56:00,
2013-02-21 22:02:00,18.9,11.0,30.27,West,274,2.0,10.0,71,0.00,,,0.00,Wunderground v.1.15,2013-02-22 03:02:00,
2013-02-21 22:08:00,18.9,11.0,30.27,ESE,113,2.0,10.0,71,0.00,,,0.00,Wunderground v.1.15,2013-02-22 03:08:00,
2013-02-21 22:14:00,18.9,11.0,30.27,NE,47,2.0,4.0,71,0.00,,,0.00,Wunderground v.1.15,2013-02-22 03:14:00,
2013-02-21 22:20:00,18.9,11.0,30.26,East,79,2.0,3.0,71,0.00,,,0.00,Wunderground v.1.15,2013-02-22 03:20:00,
2013-02-21 22:25:00,18.9,11.0,30.26,SSW,212,3.0,5.0,71,0.00,,,0.00,Wunderground v.1.15,2013-02-22 03:25:00,
2013-02-21 22:31:00,18.9,11.0,30.27,North,352,2.0,4.0,71,0.00,,,0.00,Wunderground v.1.15,2013-02-22 03:31:00,
2013-02-21 22:37:00,18.9,11.4,30.27,ENE,62,3.0,6.0,72,0.00,,,0.00,Wunderground v.1.15,2013-02-22 03:37:00,
2013-02-21 22:43:00,18.9,11.4,30.27,ESE,106,2.0,3.0,72,0.00,,,0.00,Wunderground v.1.15,2013-02-22 03:43:00,
2013-02-21 22:49:00,19.1,11.6,30.27,ENE,77,3.0,3.0,72,0.00,,,0.00,Wunderground v.1.15,2013-02-22 03:49:00,
2013-02-21 22:55:00,19.1,11.6,30.28,SSE,164,3.0,3.0,72,0.00,,,0.00,Wunderground v.1.15,2013-02-22 03:55:00,
2013-02-21 23:01:00,19.2,11.6,30.28,SW,216,2.0,7.0,72,0.00,,,0.00,Wunderground v.1.15,2013-02-22 04:01:00,
2013-02-21 23:07:00,19.2,11.6,30.28,NE,44,2.0,7.0,72,0.00,,,0.00,Wunderground v.1.15,2013-02-22 04:07:00,
2013-02-21 23:12:00,19.2,11.6,30.29,NE,45,2.0,3.0,72,0.00,,,0.00,Wunderground v.1.15,2013-02-22 04:12:00,
2013-02-21 23:18:00,19.2,11.6,30.29,SSW,205,2.0,12.0,72,0.00,,,0.00,Wunderground v.1.15,2013-02-22 04:18:00,
2013-02-21 23:24:00,19.3,12.1,30.28,ENE,61,2.0,5.0,73,0.00,,,0.00,Wunderground v.1.15,2013-02-22 04:24:00,
2013-02-21 23:30:00,19.3,12.1,30.28,NE,35,2.0,2.0,73,0.00,,,0.00,Wunderground v.1.15,2013-02-22 04:30:00,
2013-02-21 23:36:00,19.3,12.1,30.28,South,181,2.0,2.0,73,0.00,,,0.00,Wunderground v.1.15,2013-02-22 04:36:00,
2013-02-21 23:42:00,19.4,12.2,30.28,NNE,24,1.0,3.0,73,0.00,,,0.00,Wunderground v.1.15,2013-02-22 04:42:00,
2013-02-21 23:47:00,19.6,12.7,30.29,SW,231,2.0,6.0,74,0.00,,,0.00,Wunderground v.1.15,2013-02-22 04:47:00,
2013-02-21 23:53:00,19.6,12.7,30.30,WSW,243,2.0,5.0,74,0.00,,,0.00,Wunderground v.1.15,2013-02-22 04:53:00,
2013-02-21 23:59:00,19.6,12.3,30.30,ENE,70,2.0,2.0,73,0.00,,,0.00,Wunderground v.1.15,2013-02-22 04:59:00,